Regional Weather Roundup
Issued by NWS

Home | Current Version | Previous Version | Text Only | Print | Product List | Glossary On
Versions: 1 2 3 4 5 6 7 8 9 10 11 12 13 14 15 16 17 18 19 20 21 22 23 24 25 26 27 28 29 30 31 32 33 34 35 36 37 38 39 40 41 42 43 44 45 46 47 48 49 50
743
ASCA44 KEWX 240420
RWRMX

LATIN AMERICA AND CARIBBEAN REGIONAL WEATHER ROUNDUP
NATIONAL WEATHER SERVICE AUSTIN/SAN ANTONIO TX
1000 PM CST THU NOV 23 2017

NOTE: "FAIR" INDICATED FEW OR NO CLOUDS BELOW 12,000 FEET WITH NO
SIGNIFICANT WEATHER AND/OR OBSTRUCTIONS TO VISIBILITY.

BAJA CALIFORNIA

CITY           SKY/WX    TMP DP  RH WIND       PRES   REMARKS
LA PAZ         CLEAR     66  54  63 SE7       29.95R
MEXICALI       CLEAR     72  36  26 NW5       29.91R
S.J. DEL CABO  CLEAR     70  54  56 SW7       29.93S
TIJUANA        PTCLDY    70  37  30 CALM      29.97R

NORTHWESTERN MEXICO

CITY           SKY/WX    TMP DP  RH WIND       PRES   REMARKS
CULIACAN       CLEAR     72  63  73 CALM      29.91R
HERMOSILLO     CLEAR     75  36  23 S5        29.90R
CD. JUAREZ     PTCLDY    55  25  30 SW3       30.16S
LOS MOCHIS     CLEAR     68  59  73 N5        29.91R

NORTHEASTERN MEXICO

CITY           SKY/WX    TMP DP  RH WIND       PRES   REMARKS
CHIHUAHUA      CLEAR     45  21  39 S9        30.21R WCI  40
MONCLOVA         N/A    N/A N/A N/A MISG        N/A
MONTERREY      CLEAR     55  37  50 SE6       30.10S
REYNOSA          N/A    N/A N/A N/A MISG        N/A
SALTILLO       CLEAR    N/A  36   0 CALM      30.26S
TORREON        CLEAR     61  30  31 CALM      30.17F
CD. VICTORIA     N/A    N/A N/A N/A MISG        N/A

WESTERN MEXICO

CITY           SKY/WX    TMP DP  RH WIND       PRES   REMARKS
AGUASCALIENTES CLEAR     50  23  34 N7        30.26S WCI  47
COLIMA         PTCLDY    70  66  88 CALM      30.08
DEL BAJIO      CLEAR     50  32  50 N6        30.28R WCI  48
GUADALAJARA    CLEAR     50  36  57 CALM      30.16S
MAZATLAN       CLEAR     68  66  94 CALM      29.90S
P. VALLARTA    CLEAR     73  68  83 CALM      29.91S
URUAPAN          N/A    N/A N/A N/A MISG        N/A
ZACATECAS      CLEAR     39  12  33 MISG      30.30R

CENTRAL MEXICO

CITY           SKY/WX    TMP DP  RH WIND       PRES   REMARKS
CUERNAVACA       N/A    N/A N/A N/A MISG        N/A
MEXICO CITY    CLEAR     55  25  30 N3        30.31R
MORELIA        CLEAR     43  32  65 CALM      30.23R
POZA RICA        N/A    N/A N/A N/A MISG        N/A
QUERETARO      CLEAR     46  28  49 SE8       30.30S WCI  42
S. LUIS POTOSI   N/A    N/A N/A N/A MISG        N/A
TAMPICO        CLEAR     59  54  82 NE12      30.11F
TOLUCA         CLEAR     43  32  65 CALM      30.34S

SOUTHERN MEXICO

CITY           SKY/WX    TMP DP  RH WIND       PRES   REMARKS
ACAPULCO       CLEAR     79  72  78 N3        29.91S
B. DE HUATULCO   N/A    N/A N/A N/A MISG        N/A
P. ESCONDIDO     N/A    N/A N/A N/A MISG        N/A
VERACRUZ       PTCLDY    72  59  64 NE7       30.10S

YUCATAN PENINSULA

CITY           SKY/WX    TMP DP  RH WIND       PRES   REMARKS
CAMPECHE       CLEAR     75  66  73 N12G23    29.98S
CANCUN         PTCLDY    70  70 100 SW6       29.95R
CHETUMAL       PTCLDY    68  66  94 CALM      29.99R
CD. DEL CARMEN   N/A    N/A N/A N/A MISG        N/A
COZUMEL        PTCLDY    73  70  88 W10       29.94R
MERIDA         CLEAR     66  63  88 CALM      30.00S
MINATITLAN       N/A    N/A N/A N/A MISG        N/A
TAPACHULA        N/A    N/A N/A N/A MISG        N/A
TUX. GUTIERREZ PTCLDY    66  59  77 NW7       30.09S
VILLAHERMOSA   DRIZZLE   66  66 100 CALM      30.10R

CENTRAL AMERICA

CITY           SKY/WX    TMP DP  RH WIND       PRES   REMARKS
MANAGUA        MOCLDY    77  72  83 SE7       29.89S

CARIBBEAN

CITY           SKY/WX    TMP DP  RH WIND       PRES   REMARKS
ARUBA          PTCLDY    81  75  83 E10       29.86S
CURACAO        PTCLDY    81  72  74 E12       29.89S
KINGSTON       MOCLDY    81  73  78 N3        29.89
NASSAU         MOCLDY    77  73  88 SW3       29.90S
SAN JUAN       PTCLDY    81  79  94 CALM      29.90F
ST. KITTS      PTCLDY    81  75  83 E6        29.92S
ST. THOMAS       N/A    N/A N/A N/A MISG      29.91

$$





USA.gov is the U.S. government's official web portal to all federal, state and local government web resources and services.